This is the latest recevied weather packets stored in our database for station/object W1LBM. If no packets are shown the sender has not sent any weather packets the latest 10 day(s).
| Time | Temp. | Humidity | Pressure | Rain* | Wind** | Luminosity | Snow |
|---|---|---|---|---|---|---|---|
| 1778017215 | 21.67° C | 54% | 1011.8 hPa | 0 mm | - | 109 W/m² | - |
| 1778016913 | 22.22° C | 52% | 1011.7 hPa | 0 mm | - | 105 W/m² | - |
| 1778016609 | 22.22° C | 52% | 1011.8 hPa | 0 mm | - | 78 W/m² | - |
| 1778016306 | 22.22° C | 52% | 1011.5 hPa | 0 mm | - | 92 W/m² | - |
| 1778016003 | 22.22° C | 51% | 1011.7 hPa | 0 mm | - | 69 W/m² | - |
| 1778015700 | 22.22° C | 52% | 1011.8 hPa | 0 mm | - | 94 W/m² | - |
| 1778015396 | 22.22° C | 52% | 1011.7 hPa | 0 mm | - | 228 W/m² | - |
| 1778015093 | 21.67° C | 56% | 1011.8 hPa | 0 mm | - | 288 W/m² | - |
| 1778014790 | 21.11° C | 56% | 1011.9 hPa | 0 mm | - | 196 W/m² | - |
| 1778014489 | 21.11° C | 57% | 1011.7 hPa | 0 mm | - | 178 W/m² | - |
| 1778014185 | 21.67° C | 56% | 1011.7 hPa | 0 mm | - | 120 W/m² | - |
| 1778013883 | 21.67° C | 55% | 1011.6 hPa | 0 mm | - | 89 W/m² | - |
| 1778013580 | 21.67° C | 55% | 1011.5 hPa | 0 mm | - | 85 W/m² | - |
| 1778013276 | 22.22° C | 54% | 1011.5 hPa | 0 mm | - | 76 W/m² | - |
| 1778012973 | 22.22° C | 55% | 1011.7 hPa | 0 mm | - | 210 W/m² | - |
| 1778012669 | 22.22° C | 55% | 1011.7 hPa | 0 mm | - | 191 W/m² | - |
| 1778012366 | 22.22° C | 56% | 1011.9 hPa | 0 mm | - | 199 W/m² | - |
| 1778012063 | 21.67° C | 56% | 1011.4 hPa | 0 mm | - | 213 W/m² | - |
| 1778011761 | 22.22° C | 56% | 1011.8 hPa | 0 mm | - | 182 W/m² | - |
| 1778011458 | 22.22° C | 56% | 1011.8 hPa | 0 mm | - | 150 W/m² | - |
| 1778011154 | 22.22° C | 56% | 1011.8 hPa | 0 mm | - | 113 W/m² | - |
| 1778010851 | 22.22° C | 56% | 1011.6 hPa | 0 mm | - | 199 W/m² | - |
| 1778010548 | 22.22° C | 55% | 1011.6 hPa | 0 mm | - | 264 W/m² | - |
| 1778010246 | 21.67° C | 55% | 1011.7 hPa | 0 mm | - | 198 W/m² | - |
| 1778009945 | 22.22° C | 56% | 1011.7 hPa | 0 mm | - | 361 W/m² | - |
* Rain latest hour (hover to see other rain measurements)
** Current wind speed in m/s (hover to see current wind gust speed)